When you browse on this site, cookies collect data to enhance your experience and personalize the content and advertising you see.
Visit our Privacy Policy to learn more. By continuing to use the site, you agree to this use of cookies and data.

Hourly Weather Klatovy

Today, 12 August, Wednesday

Time Temperature Precipitation Wind Pressure Humidity
00:00 +20°C° 0 mm 1 mps 726 mmHg 87%
01:00 +19°C° 0 mm 1 mps 727 mmHg 87%
02:00 +19°C° 0 mm 1 mps 726 mmHg 88%
03:00 +19°C° 0 mm 1 mps 726 mmHg 89%
04:00 +19°C° 0 mm 1 mps 726 mmHg 90%
05:00 +19°C° 0 mm 1 mps 726 mmHg 88%
06:00 +20°C° 0 mm 1 mps 726 mmHg 86%
07:00 +21°C° 0 mm 1 mps 726 mmHg 84%
08:00 +23°C° 0 mm 2 mps 727 mmHg 76%
09:00 +25°C° 0 mm 2 mps 727 mmHg 68%
10:00 +27°C° 0 mm 3 mps 727 mmHg 60%
11:00 +28°C° 0 mm 3 mps 727 mmHg 57%
12:00 +29°C° 0 mm 3 mps 727 mmHg 53%
13:00 +29°C° 0 mm 4 mps 727 mmHg 50%
14:00 +29°C° 0 mm 4 mps 726 mmHg 50%
15:00 +29°C° 0 mm 4 mps 726 mmHg 51%
16:00 +29°C° 0 mm 3 mps 726 mmHg 51%
17:00 +28°C° 0 mm 3 mps 726 mmHg 59%
18:00 +26°C° 0 mm 3 mps 725 mmHg 66%
19:00 +24°C° 0 mm 2 mps 725 mmHg 74%
20:00 +23°C° 0.2 mm 2 mps 725 mmHg 77%
21:00 +21°C° 0.2 mm 2 mps 725 mmHg 80%
22:00 +21°C° 0.2 mm 1 mps 725 mmHg 84%
23:00 +21°C° 0 mm 1 mps 725 mmHg 85%

Tomorrow, 13 August, Thursday

Time Temperature Precipitation Wind Pressure Humidity
00:00 +20°C° 0 mm 1 mps 725 mmHg 86%
01:00 +20°C° 0 mm 1 mps 725 mmHg 87%
02:00 +19°C° 0 mm 1 mps 725 mmHg 87%
03:00 +19°C° 0 mm 1 mps 725 mmHg 88%
04:00 +19°C° 0 mm 1 mps 725 mmHg 88%
05:00 +20°C° 0 mm 1 mps 725 mmHg 85%
06:00 +21°C° 0 mm 1 mps 725 mmHg 82%
07:00 +21°C° 0 mm 1 mps 725 mmHg 79%
08:00 +23°C° 0 mm 1 mps 725 mmHg 73%
09:00 +25°C° 0 mm 1 mps 725 mmHg 68%
10:00 +27°C° 0 mm 1 mps 725 mmHg 62%
11:00 +28°C° 0 mm 1 mps 725 mmHg 58%
12:00 +29°C° 0 mm 1 mps 725 mmHg 55%
13:00 +30°C° 0 mm 1 mps 724 mmHg 52%
14:00 +30°C° 0.2 mm 1 mps 724 mmHg 52%
15:00 +30°C° 0.2 mm 1 mps 724 mmHg 52%
16:00 +30°C° 0.2 mm 1 mps 724 mmHg 51%
17:00 +28°C° 0.2 mm 1 mps 724 mmHg 58%
18:00 +27°C° 0.2 mm 1 mps 724 mmHg 65%
19:00 +25°C° 0.2 mm 1 mps 724 mmHg 71%
20:00 +24°C° 0.8 mm 1 mps 724 mmHg 77%
21:00 +22°C° 0.8 mm 1 mps 724 mmHg 83%
22:00 +21°C° 0.8 mm 1 mps 724 mmHg 89%
23:00 +21°C° 0.4 mm 1 mps 724 mmHg 89%

Day after tomorrow, 14 August, Friday

Time Temperature Precipitation Wind Pressure Humidity
00:00 +21°C° 0.4 mm 1 mps 724 mmHg 89%
01:00 +21°C° 0.4 mm 1 mps 724 mmHg 89%
02:00 +20°C° 0.1 mm 1 mps 724 mmHg 90%
03:00 +20°C° 0.1 mm 1 mps 724 mmHg 90%
04:00 +20°C° 0.1 mm 1 mps 724 mmHg 90%
05:00 +19°C° 0.2 mm 0 mps 724 mmHg 89%
06:00 +19°C° 0.2 mm 0 mps 724 mmHg 88%
07:00 +20°C° 0.2 mm 0 mps 724 mmHg 88%
08:00 +22°C° 0.2 mm 1 mps 724 mmHg 86%
09:00 +23°C° 0.2 mm 1 mps 724 mmHg 84%
10:00 +23°C° 0.2 mm 1 mps 724 mmHg 83%
11:00 +24°C° 0.6 mm 1 mps 724 mmHg 82%
12:00 +24°C° 0.6 mm 1 mps 724 mmHg 81%
13:00 +25°C° 0.6 mm 1 mps 723 mmHg 80%
14:00 +24°C° 0.8 mm 1 mps 723 mmHg 83%
15:00 +23°C° 0.8 mm 1 mps 723 mmHg 87%
16:00 +22°C° 0.8 mm 1 mps 723 mmHg 91%
17:00 +21°C° 0.2 mm 1 mps 723 mmHg 92%
18:00 +21°C° 0.2 mm 1 mps 723 mmHg 93%
19:00 +21°C° 0.2 mm 1 mps 724 mmHg 93%
20:00 +20°C° 0.1 mm 1 mps 724 mmHg 93%
21:00 +20°C° 0.1 mm 1 mps 724 mmHg 92%
22:00 +20°C° 0.1 mm 1 mps 724 mmHg 92%
23:00 +20°C° 0.1 mm 1 mps 724 mmHg 92%

15 August, Saturday

Time Temperature Precipitation Wind Pressure Humidity
00:00 +20°C° 0.1 mm 1 mps 724 mmHg 91%
01:00 +20°C° 0.1 mm 1 mps 724 mmHg 91%
02:00 +20°C° 0.1 mm 1 mps 724 mmHg 91%
03:00 +19°C° 0.1 mm 1 mps 724 mmHg 92%
04:00 +19°C° 0.1 mm 1 mps 724 mmHg 92%
05:00 +20°C° 0.2 mm 1 mps 724 mmHg 91%
06:00 +20°C° 0.2 mm 1 mps 724 mmHg 91%
07:00 +18°C° 0.2 mm 0 mps 724 mmHg 90%
08:00 +20°C° 0.3 mm 0 mps 725 mmHg 84%
09:00 +22°C° 0.3 mm 0 mps 725 mmHg 78%
10:00 +23°C° 0.3 mm 0 mps 725 mmHg 72%
11:00 +25°C° 1.2 mm 1 mps 725 mmHg 71%
12:00 +25°C° 1.2 mm 1 mps 725 mmHg 71%
13:00 +25°C° 1.2 mm 1 mps 724 mmHg 71%
14:00 +25°C° 0.6 mm 1 mps 724 mmHg 71%
15:00 +25°C° 0.6 mm 1 mps 724 mmHg 71%
16:00 +25°C° 0.6 mm 1 mps 724 mmHg 71%
17:00 +24°C° 0.1 mm 1 mps 724 mmHg 74%
18:00 +23°C° 0.1 mm 1 mps 724 mmHg 78%
19:00 +22°C° 0.1 mm 1 mps 724 mmHg 81%
20:00 +21°C° 0 mm 1 mps 724 mmHg 82%
21:00 +20°C° 0 mm 1 mps 724 mmHg 83%
22:00 +19°C° 0 mm 1 mps 724 mmHg 83%
23:00 +18°C° 0 mm 1 mps 724 mmHg 84%

16 August, Sunday

Time Temperature Precipitation Wind Pressure Humidity
00:00 +18°C° 0 mm 1 mps 724 mmHg 85%
01:00 +16°C° 0 mm 1 mps 723 mmHg 87%
02:00 +16°C° 0 mm 1 mps 723 mmHg 88%
03:00 +16°C° 0 mm 1 mps 723 mmHg 89%
04:00 +15°C° 0 mm 1 mps 723 mmHg 90%
05:00 +16°C° 0 mm 1 mps 723 mmHg 89%
06:00 +18°C° 0 mm 1 mps 723 mmHg 87%
07:00 +18°C° 0 mm 1 mps 723 mmHg 86%
08:00 +19°C° 0 mm 2 mps 723 mmHg 79%
09:00 +21°C° 0 mm 2 mps 724 mmHg 72%
10:00 +24°C° 0 mm 2 mps 724 mmHg 64%
11:00 +24°C° 0 mm 3 mps 723 mmHg 61%
12:00 +25°C° 0 mm 3 mps 723 mmHg 57%
13:00 +26°C° 0 mm 3 mps 723 mmHg 53%
14:00 +26°C° 0 mm 3 mps 723 mmHg 54%
15:00 +26°C° 0 mm 4 mps 722 mmHg 54%
16:00 +26°C° 0 mm 4 mps 722 mmHg 55%
17:00 +25°C° 0 mm 3 mps 722 mmHg 63%
18:00 +22°C° 0 mm 3 mps 722 mmHg 72%
19:00 +21°C° 0 mm 2 mps 722 mmHg 80%
20:00 +20°C° 0 mm 2 mps 721 mmHg 84%
21:00 +19°C° 0 mm 2 mps 721 mmHg 88%
22:00 +18°C° 0 mm 2 mps 721 mmHg 92%
23:00 +17°C° 0 mm 2 mps 721 mmHg 93%

17 August, Monday

Time Temperature Precipitation Wind Pressure Humidity
00:00 +17°C° 0 mm 2 mps 721 mmHg 93%
01:00 +17°C° 0 mm 2 mps 721 mmHg 94%
02:00 +16°C° 0 mm 2 mps 721 mmHg 94%
03:00 +16°C° 0 mm 2 mps 721 mmHg 94%
04:00 +16°C° 0 mm 2 mps 721 mmHg 94%
05:00 +16°C° 0 mm 1 mps 721 mmHg 91%
06:00 +18°C° 0 mm 1 mps 721 mmHg 89%
07:00 +19°C° 0 mm 1 mps 721 mmHg 87%
08:00 +21°C° 0 mm 1 mps 721 mmHg 81%
09:00 +22°C° 0 mm 1 mps 722 mmHg 75%
10:00 +24°C° 0 mm 1 mps 722 mmHg 69%
11:00 +25°C° 0 mm 1 mps 722 mmHg 66%
12:00 +26°C° 0 mm 1 mps 722 mmHg 63%
13:00 +27°C° 0 mm 1 mps 722 mmHg 60%
14:00 +27°C° 0.1 mm 1 mps 721 mmHg 60%
15:00 +26°C° 0.1 mm 1 mps 721 mmHg 60%
16:00 +26°C° 0.1 mm 1 mps 721 mmHg 60%
17:00 +25°C° 0.7 mm 1 mps 721 mmHg 68%
18:00 +23°C° 0.7 mm 1 mps 721 mmHg 76%
19:00 +21°C° 0.7 mm 2 mps 721 mmHg 84%
20:00 +20°C° 0.8 mm 2 mps 721 mmHg 88%
21:00 +19°C° 0.8 mm 2 mps 721 mmHg 91%
22:00 +18°C° 0.8 mm 3 mps 722 mmHg 94%
23:00 +18°C° 2.9 mm 3 mps 722 mmHg 95%
Show more